Regional Weather Roundup
Issued by NWS Little Rock, AR

Home | Current Version | Previous Version | Text Only | Print | Product List | Glossary Off
Versions: 1 2 3 4 5 6 7 8 9 10 11 12 13 14 15 16 17 18 19 20 21 22 23 24 25 26 27 28 29 30 31 32 33 34 35 36 37 38 39 40 41 42 43 44 45 46 47 48 49 50

000
ASUS44 KLZK 282105
RWRLZK

WEATHER ROUNDUP FOR ARKANSAS
NATIONAL WEATHER SERVICE LITTLE ROCK AR
300 PM CST SAT FEB 28 2015

NOTE: "FAIR" INDICATES FEW OR NO CLOUDS BELOW 12,000 FEET WITH NO
SIGNIFICANT WEATHER AND/OR OBSTRUCTIONS TO VISIBILITY.

ARZ001-003-010-029-282200-
NORTHWEST ARKANSAS

CITY           SKY/WX    TMP DP  RH WIND       PRES   REMARKS
FAYETTEVILLE   MIX PCPN  29  26  89 N3        30.34S FOG
FORT SMITH     FRZ RAIN  29  24  82 E6        30.41R WCI  23
HARRISON       MIX PCPN  23  21  92 E6        30.37F FOG     WCI  16
BENTONVILLE    CLOUDY    27  21  80 E6        30.35F WCI  20
ROGERS         LGT SNOW  27  24  89 E6        30.35F FOG     WCI  20
SILOAM SPGS    CLOUDY    28  21  74 CALM      30.36F
HIGHFILL       LGT SNOW  28  24  85 NE6       30.34F FOG     WCI  22
SPRINGDALE     LGT SNOW  28  25  86 E5        30.36F FOG     WCI  23
$$

ARZ004-005-016-282200-
NORTH CENTRAL ARKANSAS

CITY           SKY/WX    TMP DP  RH WIND       PRES   REMARKS
BATESVILLE     CLOUDY    30  21  69 E10       30.42F WCI  21
FLIPPIN        CLOUDY    25  19  80 CALM      30.42R
MTN HOME       MIX PCPN  25  22  88 CALM      30.42R FOG
$$

ARZ040-041-282200-
WEST CENTRAL ARKANSAS

CITY           SKY/WX    TMP DP  RH WIND       PRES   REMARKS
MENA           CLOUDY    34  27  75 NE5       30.34R WCI  30
MOUNT IDA      CLOUDY    37  23  56 CALM      30.32F
$$

ARZ009-017-025-026-028-282200-
NORTHEAST ARKANSAS

CITY           SKY/WX    TMP DP  RH WIND       PRES   REMARKS
CORNING        LGT RAIN  28  23  80 NE12      30.46F WCI  18
JONESBORO      CLOUDY    29  23  78 NE14      30.45F WCI  18
NEWPORT        CLOUDY    31  22  69 NE8       30.47F WCI  24
WALNUT RIDGE   CLOUDY    28  19  69 NE9       30.45F WCI  20
BLYTHEVILLE    CLOUDY    34  23  64 NE8       30.48S WCI  27
$$

ARZ022-023-033-042-044-282200-
CENTRAL ARKANSAS

CITY           SKY/WX    TMP DP  RH WIND       PRES   REMARKS
LITTLE ROCK    CLOUDY    37  21  52 E10       30.41F
N LITTLE ROCK  CLOUDY    37  24  59 E9        30.41F
JACKSONVILLE   PTSUNNY   36  22  55 E10       30.40F
SEARCY         CLOUDY    34  22  61 NE10      30.45F WCI  26
HOT SPRINGS    PTSUNNY   39  22  50 SE12G17   30.35F
RUSSELLVILLE   CLOUDY    32  23  69 E6        30.38F WCI  26
CLINTON        CLOUDY    32  23  69 SE3       30.43R
$$

ARZ036-282200-
EAST ARKANSAS

CITY           SKY/WX    TMP DP  RH WIND       PRES   REMARKS
WEST MEMPHIS   MOSUNNY   44  23  43 NE8       30.43F
$$

ARZ050-053-066-070-073-282200-
SOUTHWEST ARKANSAS

CITY           SKY/WX    TMP DP  RH WIND       PRES   REMARKS
ARKADELPHIA    FAIR      40  25  55 NE6       30.37F
CAMDEN         MOSUNNY   45  25  45 MISG      30.36F
TEXARKANA      CLOUDY    38  25  59 VRB5      30.34F
EL DORADO      CLOUDY    46  28  49 E10       30.34F
DE QUEEN       MIX PCPN  35  25  66 NE7       30.33F WCI  29
$$

ARZ056-057-069-282200-
SOUTHEAST ARKANSAS

CITY           SKY/WX    TMP DP  RH WIND       PRES   REMARKS
PINE BLUFF     CLOUDY    36  25  64 NE7       30.41F
STUTTGART      CLOUDY    37  23  56 NE10      30.43S
MONTICELLO     CLOUDY    46  29  51 NE9       30.38F

$$





USA.gov is the U.S. government's official web portal to all federal, state and local government web resources and services.